Upstream stations:
Downstream station:
SHEF ID: WANO2 Cimarron River near Waynoka, OK
STATION TYPE:
Regulating: Stage = 9.00, Flow = 4005
PRECIP STAGE RIV-FLOW BAT-LOAD
in ft cfs volt
Ccp-Rev Ccp-Rev Ccp-Rev Ccp-Rev
(US/Central)
01/18 00:00 0.00 5.60 28 12.73
01/18 01:00 0.00 5.59 27 12.73
01/18 02:00 0.00 5.60 28 12.73
01/18 03:00 0.00 5.59 27 12.65
01/18 04:00 0.00 5.59 27 12.65
01/18 05:00 0.00 5.58 24 12.65
01/18 06:00 0.00 5.58 24 12.65
01/18 07:00 0.00 5.58 24 12.65
01/18 08:00 0.00 5.58 24 12.65
01/18 09:00 0.00 5.58 24 12.65
01/18 10:00 0.00 5.58 24 13.13
01/18 11:00 0.00 5.60 28 13.60
01/18 12:00 0.00 5.61 29 13.92
01/18 13:00 0.00 5.61 29 13.68
01/18 14:00 0.00 5.61 29 13.68
01/18 15:00 0.00 5.62 31 13.60
01/18 16:00 0.00 5.62 31 13.60
01/18 17:00 0.00 5.61 29 13.60
01/18 18:00 0.00 5.61 29 13.37
01/18 19:00 0.00 5.61 29 13.05
01/18 20:00 0.00 5.62 31 12.89
01/18 21:00 0.00 5.62 31 12.81
01/18 22:00 0.00 5.62 31 12.81
01/18 23:00 0.00 5.62 31 12.73